Three Rivers, MI

3:30 PM EDT on September 20, 2017 (GMT -0400)
Three Rivers Municipal-Haines

Weather History for KHAI - November, 2013

Change the Weather History Date:

Sunday, November 17, 2013

  Actual Average Record
Temperature  
Mean Temperature 54 °F -  
Max Temperature 63 °F 49 °F 71 °F (1952)
Min Temperature 46 °F 30 °F 10 °F (1959)
Degree Days  
Heating Degree Days 10    
Growing Degree Days 4 (Base 50)    
Moisture  
Dew Point 53 °F    
Average Humidity 86    
Maximum Humidity 93    
Minimum Humidity 69    
Precipitation  
Precipitation 0.00 in - - ()
Sea Level Pressure  
Sea Level Pressure 29.51 in    
Wind  
Wind Speed 17 mph (SSW)    
Max Wind Speed 31 mph    
Max Gust Speed 51 mph    
Visibility 9 miles    
Events Rain    
Averages and records for this station are not official NWS values.
T = Trace of Precipitation, MM = Missing Value Source: NWS Daily Summary

Daily Weather History Graph

Daily Weather History Graph

Search for Another Location

Airport or City:

Trip Planner

Search our weather history database for the weather conditions in past years. The results will help you decide how hot, cold, wet, or windy it might be!

Date:

Astronomy

Nov. 17, 2013 Rise Set
Actual Time 7:34 AM EST 5:19 PM EST
Civil Twilight 7:04 AM EST 5:49 PM EST
Nautical Twilight 6:30 AM EST 6:23 PM EST
Astronomical Twilight 5:57 AM EST 6:56 PM EST
Moon 5:36 PM EST (11/17) 7:28 AM EST (11/17)
Length of Visible Light 10h 44m
Length of Day
9h 44m
Full, 100% of the Moon is Illuminated
Nov 17
Full
Nov 25
Last Quarter
Dec 2
New
Dec 9
First Quarter
Dec 17
Full

Hourly Weather History & Observations

Time (EST) Temp. Dew Point Humidity Pressure Visibility Wind Dir Wind Speed Gust Speed Precip Events Conditions
12:15 AM 57.9 °F 55.4 °F 91% 29.70 in 7.0 mi South 17.3 mph 25.3 mph N/A   Overcast
12:35 AM 58.1 °F 55.6 °F 91% 29.70 in 7.0 mi South 15.0 mph 21.9 mph N/A   Overcast
12:55 AM 58.5 °F 55.8 °F 91% 29.69 in 10.0 mi South 16.1 mph 20.7 mph N/A   Overcast
1:15 AM 58.6 °F 55.9 °F 91% 29.69 in 10.0 mi South 15.0 mph 21.9 mph N/A   Overcast
1:35 AM 59.0 °F 56.3 °F 91% 29.67 in 10.0 mi SSW 13.8 mph 26.5 mph N/A   Overcast
1:54 AM 59.2 °F 56.1 °F 90% 29.67 in 10.0 mi South 13.8 mph 20.7 mph N/A   Overcast
2:15 AM 59.4 °F 56.5 °F 90% 29.67 in 10.0 mi SSW 13.8 mph - N/A   Overcast
2:35 AM 59.9 °F 56.5 °F 88% 29.66 in 10.0 mi SSW 12.7 mph - N/A   Overcast
2:54 AM 59.9 °F 56.7 °F 89% 29.67 in 10.0 mi SSW 10.4 mph - N/A   Overcast
3:15 AM 59.9 °F 56.7 °F 89% 29.67 in 10.0 mi SSW 11.5 mph 16.1 mph N/A   Overcast
3:35 AM 59.5 °F 56.7 °F 90% 29.66 in 10.0 mi South 11.5 mph - N/A   Overcast
3:55 AM 59.5 °F 56.8 °F 91% 29.65 in 10.0 mi South 11.5 mph - N/A   Overcast
4:15 AM 59.7 °F 57.2 °F 91% 29.65 in 10.0 mi SSW 9.2 mph - N/A   Overcast
4:35 AM 59.5 °F 57.2 °F 92% 29.65 in 10.0 mi South 11.5 mph - N/A   Overcast
4:55 AM 59.5 °F 57.2 °F 92% 29.65 in 10.0 mi South 10.4 mph - N/A   Overcast
5:15 AM 59.5 °F 57.2 °F 92% 29.65 in 10.0 mi South 9.2 mph - N/A   Overcast
5:35 AM 59.7 °F 57.2 °F 91% 29.65 in 10.0 mi South 11.5 mph - N/A   Overcast
5:55 AM 59.9 °F 57.2 °F 91% 29.63 in 10.0 mi South 11.5 mph - N/A   Light Drizzle
6:15 AM 59.9 °F 57.2 °F 91% 29.62 in 10.0 mi South 9.2 mph - N/A   Overcast
6:35 AM 59.9 °F 56.8 °F 90% 29.63 in 4.0 mi South 12.7 mph 17.3 mph N/A Rain Heavy Rain
6:55 AM 59.0 °F 56.7 °F 92% 29.63 in 7.0 mi South 9.2 mph - N/A Rain Rain
7:15 AM 59.0 °F 56.7 °F 92% 29.62 in 10.0 mi South 10.4 mph 16.1 mph N/A Rain Light Rain
7:34 AM 59.0 °F 56.7 °F 92% 29.61 in 10.0 mi South 15.0 mph - N/A   Overcast
7:55 AM 59.2 °F 56.7 °F 91% 29.60 in 10.0 mi South 11.5 mph 20.7 mph N/A   Overcast
8:14 AM 59.0 °F 56.5 °F 91% 29.59 in 10.0 mi South 13.8 mph 19.6 mph N/A   Overcast
8:35 AM 59.2 °F 56.7 °F 91% 29.59 in 10.0 mi SSE 15.0 mph 19.6 mph N/A   Overcast
8:55 AM 59.5 °F 56.8 °F 91% 29.59 in 10.0 mi South 15.0 mph 24.2 mph N/A   Overcast
9:15 AM 59.9 °F 57.2 °F 91% 29.58 in 2.5 mi SSE 17.3 mph 23.0 mph N/A Rain Rain
9:35 AM 59.9 °F 57.4 °F 91% 29.57 in 10.0 mi South 15.0 mph 25.3 mph N/A Rain Light Rain
9:55 AM 59.9 °F 57.6 °F 92% 29.55 in 7.0 mi South 15.0 mph 20.7 mph N/A Rain Light Rain
10:15 AM 60.3 °F 58.1 °F 93% 29.55 in 7.0 mi South 12.7 mph 26.5 mph N/A   Overcast
10:35 AM 60.4 °F 58.1 °F 92% 29.55 in 10.0 mi South 16.1 mph 27.6 mph N/A Rain Light Rain
10:54 AM 60.8 °F 58.1 °F 91% 29.55 in 10.0 mi South 18.4 mph 24.2 mph N/A   Overcast
11:15 AM 61.7 °F 58.3 °F 89% 29.53 in 10.0 mi South 20.7 mph 25.3 mph N/A   Overcast
11:35 AM 62.1 °F 58.3 °F 87% 29.52 in 10.0 mi South 19.6 mph 28.8 mph N/A   Overcast
11:54 AM 62.6 °F 58.5 °F 86% 29.50 in 10.0 mi South 18.4 mph 28.8 mph N/A   Overcast
12:15 PM 63.1 °F 58.8 °F 86% 29.46 in 10.0 mi South 19.6 mph 25.3 mph N/A   Overcast
12:34 PM 63.1 °F 59.0 °F 86% 29.44 in 10.0 mi South 20.7 mph 27.6 mph N/A   Overcast
12:55 PM 63.7 °F 59.2 °F 85% 29.42 in 10.0 mi South 24.2 mph 32.2 mph N/A   Overcast
1:15 PM 63.5 °F 59.0 °F 85% 29.40 in 10.0 mi South 21.9 mph 34.5 mph N/A   Overcast
1:34 PM 63.1 °F 59.2 °F 87% 29.38 in 10.0 mi South 21.9 mph 31.1 mph N/A   Light Drizzle
1:55 PM 63.7 °F 59.4 °F 86% 29.36 in 10.0 mi South 21.9 mph 33.4 mph N/A Rain Light Rain
2:14 PM 62.8 °F 59.0 °F 87% 29.34 in 7.0 mi South 24.2 mph 38.0 mph N/A Rain Light Rain
2:35 PM 62.6 °F 59.0 °F 88% 29.32 in 10.0 mi South 26.5 mph 32.2 mph N/A   Overcast
2:55 PM 63.1 °F 59.9 °F 89% 29.30 in 10.0 mi South 24.2 mph 33.4 mph N/A   Overcast
3:14 PM 63.5 °F 59.9 °F 88% 29.27 in 10.0 mi South 25.3 mph 34.5 mph N/A   Overcast
3:35 PM 63.5 °F 59.9 °F 88% 29.27 in 4.0 mi South 19.6 mph 35.7 mph N/A Rain Rain
3:54 PM 60.1 °F 54.7 °F 82% 29.31 in 4.0 mi SW 19.6 mph 48.3 mph N/A Rain Heavy Rain
4:15 PM 55.9 °F 52.7 °F 89% 29.26 in 2.5 mi South 23.0 mph 42.6 mph N/A Rain Heavy Rain
4:35 PM 56.7 °F 53.1 °F 88% 29.26 in 10.0 mi SSW 23.0 mph 28.8 mph N/A Rain Rain
4:54 PM 57.7 °F 54.0 °F 87% 29.27 in 7.0 mi SW 6.9 mph 18.4 mph N/A Rain Light Rain
5:15 PM 58.1 °F 54.9 °F 89% 29.27 in 10.0 mi SSW 11.5 mph - N/A   Overcast
5:35 PM 58.3 °F 54.7 °F 88% 29.26 in 10.0 mi SSW 16.1 mph 19.6 mph N/A   Scattered Clouds
5:54 PM 59.0 °F 52.2 °F 78% 29.26 in 10.0 mi WSW 26.5 mph 35.7 mph N/A   Scattered Clouds
6:15 PM 58.5 °F 48.4 °F 69% 29.28 in 10.0 mi SW 16.1 mph 33.4 mph N/A   Scattered Clouds
6:35 PM 56.7 °F 47.3 °F 71% 29.32 in 10.0 mi WSW 20.7 mph 35.7 mph N/A   Mostly Cloudy
6:55 PM 53.6 °F 43.7 °F 69% 29.36 in 10.0 mi WSW 28.8 mph 48.3 mph N/A   Overcast
7:15 PM 51.6 °F 43.2 °F 73% 29.39 in 10.0 mi West 24.2 mph 42.6 mph N/A   Overcast
7:35 PM 50.9 °F 42.3 °F 72% 29.41 in 10.0 mi West 27.6 mph 41.4 mph N/A   Overcast
7:55 PM 49.6 °F 43.7 °F 80% 29.43 in 10.0 mi West 24.2 mph 34.5 mph N/A Rain Rain
8:15 PM 49.8 °F 41.9 °F 74% 29.44 in 10.0 mi West 21.9 mph 50.6 mph N/A   Overcast
8:34 PM 47.7 °F 43.0 °F 84% 29.46 in 4.0 mi West 26.5 mph 34.5 mph N/A Rain Light Rain
8:55 PM 47.3 °F 41.9 °F 82% 29.48 in 7.0 mi West 20.7 mph 38.0 mph N/A   Overcast
9:15 PM 46.9 °F 41.9 °F 83% 29.50 in 5.0 mi West 29.9 mph 40.3 mph N/A Rain Light Rain
9:34 PM 46.9 °F 41.0 °F 80% 29.52 in 10.0 mi West 31.1 mph 41.4 mph N/A Rain Light Rain
9:55 PM 46.9 °F 40.3 °F 78% 29.54 in 10.0 mi West 29.9 mph 47.2 mph N/A Rain Light Rain
10:15 PM 47.3 °F 39.6 °F 74% 29.55 in 10.0 mi West 25.3 mph 36.8 mph N/A   Overcast
10:34 PM 47.3 °F 38.8 °F 72% 29.56 in 10.0 mi West 26.5 mph 38.0 mph N/A   Overcast
10:55 PM 47.3 °F 38.5 °F 71% 29.58 in 10.0 mi West 18.4 mph 38.0 mph N/A   Overcast
11:15 PM 47.1 °F 38.3 °F 71% 29.60 in 10.0 mi West 21.9 mph 34.5 mph N/A   Overcast
11:35 PM 46.8 °F 37.9 °F 71% 29.61 in 10.0 mi West 21.9 mph 34.5 mph N/A   Overcast
11:55 PM 46.6 °F 37.4 °F 70% 29.62 in 10.0 mi West 25.3 mph 40.3 mph N/A   Overcast